Regional Weather Roundup
Issued by NWS Glasgow, MT

Home | Current Version | Previous Version | Text Only | Print | Product List | Glossary On
Versions: 1 2 3 4 5 6 7 8 9 10 11 12 13 14 15 16 17 18 19 20 21 22 23 24 25 26 27 28 29 30 31 32 33 34 35 36 37 38 39 40 41 42 43 44 45 46 47 48 49 50
000
ASUS45 KGGW 220915
RWRGGW
HOURLY WEATHER ROUNDUP FOR NORTHEAST MONTANA
NATIONAL WEATHER SERVICE GLASGOW MONTANA
300 AM MDT FRI MAY 22 2015

NOTE: "FAIR" INDICATES FEW OR NO CLOUDS BELOW 12,000 FEET WITH NO
SIGNIFICANT WEATHER AND/OR OBSTRUCTIONS TO VISISBILITY.

NORTHEAST MONTANA


CITY           SKY/WX    TMP DP  RH WIND       PRES   REMARKS
GLASGOW        CLEAR     46  33  60 E13       30.05F
WOLF POINT     CLEAR     43  35  73 E5        30.09S
JORDAN           N/A     47  30  51 E9        30.03S
WINNETT          N/A     45  28  51 SW3         N/A
SIDNEY         CLEAR     43  36  75 CALM      30.12R
GLENDIVE       CLEAR     50  30  46 S5        30.11S
MALTA            N/A     46  33  60 E7          N/A
OPHEIM           N/A     50  30  46 SE6       29.92S

FORT PECK REPORTS


CITY           SKY/WX    TMP DP  RH WIND       PRES   REMARKS
FORT PECK        N/A     56  34  43 E17         N/A
THE PINES        N/A     52  32  46 SE6         N/A

SOUTHEAST MONTANA


CITY           SKY/WX    TMP DP  RH WIND       PRES   REMARKS
BILLINGS       PTCLDY    48  41  76 N3        29.95F
MILES CITY     CLEAR     49  31  49 SE7       30.04F
BAKER          CLEAR     39  30  70 E7        30.11F
LIVINGSTON     CLEAR     41  37  86 SW3       29.98S

CENTRAL MONTANA


CITY           SKY/WX    TMP DP  RH WIND       PRES   REMARKS
HAVRE          CLEAR     44  32  62 E9        29.99S
LEWISTOWN      CLEAR     48  38  68 E13       29.98F
GREAT FALLS    CLEAR     47  41  80 CALM      29.95S
CUT BANK       PTCLDY    47  29  49 E5        29.97F
HELENA         CLEAR     47  43  86 W3        29.95F
BUTTE          CLEAR     37  35  92 CALM      29.99F
BOZEMAN        CLEAR     42  39  89 S5        29.97S

WESTERN MONTANA


CITY           SKY/WX    TMP DP  RH WIND       PRES   REMARKS
MISSOULA       CLEAR     46  41  82 N7        29.93S
KALISPELL      NOT AVBL

NORTH DAKOTA


CITY           SKY/WX    TMP DP  RH WIND       PRES   REMARKS
WILLISTON      CLEAR     42  36  79 CALM      30.11S
DICKINSON      CLEAR     40  31  70 S3        30.11S
MINOT          CLEAR     52  34  50 S5        30.12F
BISMARCK       CLEAR     47  41  80 NE7       30.15R

SOUTHERN SASKATCHEWAN


CITY           SKY/WX    TMP DP  RH WIND       PRES   REMARKS
REGINA         NOT AVBL
ESTEVAN        PTCLDY    46  37  71 E6        30.12S
SWIFT CURRENT  CLEAR     46  30  53 S12       30.07S



USA.gov is the U.S. government's official web portal to all federal, state and local government web resources and services.